Location: Dehesa de la Cepeda
(40.6574°N, 4.3013°W)
Time: 10:27:08
(UTC+00:00)

Transit 2A Rocket - Pass Details

Date: 11 August 2021
Orbit: 586 x 917 km, 66.7° (Epoch: 24 September)

Event Time Altitude Azimuth Distance (km) Brightness Sun altitude
Rises 22:13:19 0° 313° (NW) 3,395 9.6 -26.8°
Reaches altitude 10° 22:16:29 10° 295° (WNW) 2,508 8.4 -27.2°
Maximum altitude 22:20:16 18° 254° (WSW) 2,038 7.3 -27.6°
Enters shadow 22:22:24 15° 229° (SW) 2,223 7.3 -27.8°
Drops below altitude 10° 22:24:10 10° 214° (SW) 2,581 - -28.0°
Sets 22:27:31 0° 196° (SSW) 3,534 - -28.3°
